Regional Weather Roundup
Issued by NWS

Home | Current Version | Previous Version | Text Only | Print | Product List | Glossary On
Versions: 1 2 3 4 5 6 7 8 9 10 11 12 13 14 15 16 17 18 19 20 21 22 23 24 25 26 27 28 29 30 31 32 33 34 35 36 37 38 39 40 41 42 43 44 45 46 47 48 49 50
000
ASUS44 KMEG 200610
RWRTN
TENNESSEE HOURLY STATE WEATHER ROUNDUP
NATIONAL WEATHER SERVICE MEMPHIS TN
100 AM CDT SUN APR 20 2014

TNZ002-004-019-021-049-052-054-088>092-200700-
WEST TENNESSEE

CITY           SKY/WX    TMP DP  RH WIND       PRES   REMARKS
MEMPHIS INTL   FAIR      58  45  62 CALM      30.14F
NWS MEMPHIS      N/A     53 N/A N/A MISG        N/A
JACKSON        FAIR      48  44  86 CALM      30.16S
DYERSBURG      FAIR      59  39  47 E6        30.17S
UNION CITY     CLEAR     52  46  82 CALM      30.16S
PARIS          FAIR      49  39  68 CALM      30.18S
LEXINGTON      CLEAR     52  43  71 CALM      30.16S
SAVANNAH       FAIR      48  47  97 CALM      30.17S
$$

TNZ008-025-027-028-033-062-065-066-200700-
NORTH MIDDLE TENNESSEE

CITY           SKY/WX    TMP DP  RH WIND       PRES   REMARKS
NASHVILLE      FAIR      54  42  64 CALM      30.17F
DICKSON        FAIR      61  37  41 NE3       30.18S
PORTLAND       FAIR      54  37  54 CALM      30.18S
CLARKSVILLE    FAIR      51  42  71 CALM      30.18S
SMYRNA         FAIR      49  43  80 CALM      30.18S
MURFREESBORO   FAIR      53  43  69 CALM      30.17
COOKEVILLE     CLEAR     43  39  87 CALM      30.16S
LIVINGSTON     FAIR      55  37  50 NE6       30.18S
GALLATIN       FAIR      57  40  53 NE6       30.18S
CROSSVILLE     FAIR      47  40  76 CALM      30.19S HAZE
$$

TNZ061-075-076-078-094-096-097-200700-
SOUTH MIDDLE TENNESSEE

CITY           SKY/WX    TMP DP  RH WIND       PRES   REMARKS
LEWISBURG      FAIR      45  41  86 CALM      30.16F
FAYETTEVILLE   FAIR      51  41  69 CALM      30.17S
TULLAHOMA      CLEAR     48  41  76 CALM      30.18S
WINCHESTER     CLEAR     46  43  87 CALM      30.17F
MCMINNVILLE    CLEAR     46  45  93 CALM      30.17S
COLUMBIA       CLEAR     48  48 100 CALM      30.16S
SHELBYVILLE    FAIR      48  45  87 CALM      30.18S
$$

TNZ017-018-042-046-047-200700-
NORTHEAST TENNESSEE

CITY           SKY/WX    TMP DP  RH WIND       PRES   REMARKS
TRI CITIES     CLOUDY    49  40  71 CALM      30.20F
ELIZABETHTON   CLEAR     52  37  58 CALM      30.21S
$$

TNZ012-013-036-069-073-074-200700-
CENTRAL EAST TENNESSEE

CITY           SKY/WX    TMP DP  RH WIND       PRES   REMARKS
KNOXVILLE      FAIR      50  48  93 NW3       30.17
OAK RIDGE      FAIR      49  44  83 CALM      30.19S
$$

TNZ083-085-099-200700-
SOUTHEAST TENNESSEE

CITY           SKY/WX    TMP DP  RH WIND       PRES   REMARKS
CHATTANOOGA    FAIR      50  46  86 CALM      30.17F
$$

SKY/WX REPORTED AS FAIR MEANS FEW OR NO CLOUDS BELOW
12 THOUSAND FEET.




USA.gov is the U.S. government's official web portal to all federal, state and local government web resources and services.